Regional Weather Roundup
Issued by NWS Upton, NY

Current Version | Previous Version | Text Only | Print | Product List | Glossary On
Versions: 1 2 3 4 5 6 7 8 9 10 11 12 13 14 15 16 17 18 19 20 21 22 23 24 25 26 27 28 29 30 31 32 33 34 35 36 37 38 39 40 41 42 43 44 45 46 47 48 49 50
000 ASUS41 KOKX 280904 RWROKX REGIONAL WEATHER ROUNDUP NATIONAL WEATHER SERVICE NEW YORK NY 500 AM EDT FRI AUG 28 2015 NOTE: "FAIR" INDICATES FEW OR NO CLOUDS BELOW 12,000 FEET WITH NO SIGNIFICANT WEATHER AND/OR OBSTRUCTIONS TO VISIBILITY. NYZ071-072-176-178-NJZ106-104-281000- NEW YORK CITY METRO AREA CITY SKY/WX TMP DP RH WIND PRES REMARKS CENTRAL PARK CLEAR 66 53 63 NW3 30.16S LAGUARDIA APRT PTCLDY 67 55 65 W6 30.13R KENNEDY INTL PTCLDY 65 55 70 N6 30.14S NEWARK/LIBERTY PTCLDY 64 54 69 N7 30.14R BRNX BOT. GARD N/A 63 54 72 NW5 30.13F TETERBORO CLEAR 62 53 72 CALM 30.13S $$ NYZ177-179-078>081-281000- LONG ISLAND NEW YORK CITY SKY/WX TMP DP RH WIND PRES REMARKS FARMINGDALE CLEAR 66 54 65 N3 30.13S ISLIP MOCLDY 65 55 70 N6 30.10S SHIRLEY CLOUDY 64 57 78 N5 30.12S WESTHAMPTON CLEAR 59 55 87 CALM 30.13R MONTAUK POINT N/A 67 58 72 N6 30.11S $$ NYZ052-065-067-281000- HUDSON VALLEY CITY SKY/WX TMP DP RH WIND PRES REMARKS WHITE PLAINS CLEAR 60 54 80 NW6 30.13S NEWBURGH PTCLDY 59 57 94 W7 30.15S MONTGOMERY CLEAR 52 50 93 CALM 30.15S POUGHKEEPSIE CLEAR 54 51 90 CALM 30.14S ALBANY MOCLDY 58 54 86 CALM 30.15S $$ NJZ001-105-106-008-010-013-015-019>022-104-281000- NEW JERSEY CITY SKY/WX TMP DP RH WIND PRES REMARKS NEWARK/LIBERTY PTCLDY 64 54 69 N7 30.14R TETERBORO CLEAR 62 53 72 CALM 30.13S CALDWELL CLEAR 56 52 86 CALM 30.15S MORRISTOWN CLEAR 48 45 87 CALM 30.15S SOMERVILLE CLEAR 52 49 89 NW6 30.14S SUSSEX CLEAR 50 48 93 CALM 30.16S ANDOVER NOT AVBL TRENTON CLEAR 59 54 83 NW6 30.14S MILLVILLE CLEAR 55 54 96 CALM 30.14S ATLANTIC CITY CLEAR 57 54 89 NW3 30.14S WRIGHTSTOWN CLEAR 59 55 87 NW5 30.12S TOMS RIVER CLEAR 52 46 82 CALM 30.14S BELMAR CLEAR 57 48 72 NW5 30.14R $$ PAZ047>061-062-071-281000- EASTERN PENNSYLVANIA CITY SKY/WX TMP DP RH WIND PRES REMARKS PHILADELPHIA CLEAR 64 53 67 N5 30.16R ALLENTOWN CLEAR 53 51 93 CALM 30.16F SCRANTON PTCLDY 54 50 86 E6 30.18S $$ CTZ002-004>006-009-010-012-RIZ004-006-007-MAZ004-011-015-281000- SOUTHERN NEW ENGLAND IN CT CITY SKY/WX TMP DP RH WIND PRES REMARKS BRADLEY INTL CLEAR 54 52 93 CALM 30.12R HARTFORD CLEAR 59 56 89 CALM 30.12R DANBURY PTCLDY 54 50 86 SW3 30.15S WTRBRY/OXFORD PTCLDY 55 46 71 N5 30.16R BRIDGEPORT MOCLDY 64 54 69 N6 30.12R MERIDEN CLEAR 55 52 89 CALM 30.13R NEW HAVEN CLEAR 61 54 77 N3 30.12S CHESTER NOT AVBL GROTON CLEAR 60 56 86 N6 30.10S WILLIMANTIC CLEAR 54 51 90 CALM 30.12S IN RI CITY SKY/WX TMP DP RH WIND PRES REMARKS PROVIDENCE CLEAR 62 55 77 W3 30.11R BLOCK ISLAND CLEAR 63 59 88 N5 30.10S WESTERLY CLEAR 58 54 86 NE3 30.11R IN MA CITY SKY/WX TMP DP RH WIND PRES REMARKS BOSTON CLEAR 65 53 65 NW7 30.10R WORCESTER CLEAR 58 54 86 NW12 30.13R WESTFIELD CLEAR 56 53 90 N3 30.13R PROVINCETOWN CLEAR 66 55 68 NW10 30.09R NANTUCKET CLEAR 67 57 70 N7 30.08R $$ ANZ330-335-338-340-345-350-353-355-281000- COASTAL MARINE OBSERVATIONS STATION/POSITION TIME SKY/WX TEMP WIND PRES VSBY WAVE AIR SEA DIR/SP/G HT/PER (UTC) (F) (DEG/KT/KT) (MB) (MI) (FT/S) NY HARB ENTRANCE 0750 71 75 360/ 10/ 14 1019.7 2/10 4S FIRE IS NOT AVBL 20S FIRE ISLAND 0750 71 74 360/ 12/ 14 1019.5 3/11 GREAT SOUTH BAY 0800 65 78 360/ 2/ 4 N/A 23SW MTP 0850 69 72 360/ 12/ 14 1018.8 3/10 HUDSON CANYON NOT AVBL KINGS POINT 0800 68 68 20/ 5/ 8 1019.5 EXECUTION ROCKS 0800 68 340/ 6/ 10 N/A CENTRAL LI SOUND NOT AVBL EASTERN LI SOUND 0800 66 71 330/ 8/ 10 N/A ROBBINS REEF 0800 66 340/ 9/ 11 1019.1 $$ >>>>>>>>>>>>>>>>>>>>>>>>>>>> KEY <<<<<<<<<<<<<<<<<<<<<<<<<<< > < > SKY/WX - SKY CONDITION/PRESENT WEATHER < > TMP - TEMPERATURE IN FAHRENHEIT < > DP - DEWPOINT IN FAHRENHEIT < > RH - RELATIVE HUMIDITY IN PERCENT < > WIND - DIRECTION AND SPEED IN MPH < > PRES - MEAN SEA LEVEL PRESSURE IN INCHES OF HG < > WCI - WIND CHILL INDEX < > VSB - VISIBILITY IN MILES < > HX - HEAT INDEX < > TC - TEMPERATURE IN CELSIUS < > VRB - VARIABLE WIND DIRECTION < > < >>>>>>>>>>>>>>>>>>>>>>>>>>>> KEY <<<<<<<<<<<<<<<<<<<<<<<<<<<

USA.gov is the U.S. government's official web portal to all federal, state and local government web resources and services.